Year,Month,Day,Hour,Minute,Value (Times are PST for temperature in C)
2014,01,21,00,00,0.50
2014,01,21,00,01,0.50
2014,01,21,00,02,0.50
2014,01,21,00,03,0.50
2014,01,21,00,04,0.50
2014,01,21,00,05,0.50
2014,01,21,00,06,0.50
2014,01,21,00,07,0.50
2014,01,21,00,08,0.50
2014,01,21,00,09,0.50
2014,01,21,00,10,0.50
2014,01,21,00,11,0.50
2014,01,21,00,12,0.50
2014,01,21,00,13,0.40
2014,01,21,00,14,0.40
2014,01,21,00,15,0.40
2014,01,21,00,16,0.40
2014,01,21,00,17,0.40
2014,01,21,00,18,0.40
2014,01,21,00,19,0.50
2014,01,21,00,20,0.50
2014,01,21,00,21,0.50
2014,01,21,00,22,0.50
2014,01,21,00,23,0.50
2014,01,21,00,24,0.50
2014,01,21,00,25,0.50
2014,01,21,00,26,0.50
2014,01,21,00,27,0.50
2014,01,21,00,28,0.50
2014,01,21,00,29,0.40
2014,01,21,00,30,0.50
2014,01,21,00,31,0.40
2014,01,21,00,32,0.40
2014,01,21,00,33,0.40
2014,01,21,00,34,0.40
2014,01,21,00,35,0.40
2014,01,21,00,36,0.30
2014,01,21,00,37,0.30
2014,01,21,00,38,0.30
2014,01,21,00,39,0.30
2014,01,21,00,40,0.30
2014,01,21,00,41,0.30
2014,01,21,00,42,0.20
2014,01,21,00,43,0.20
2014,01,21,00,44,0.20
2014,01,21,00,45,0.20
2014,01,21,00,46,0.20
2014,01,21,00,47,0.20
2014,01,21,00,48,0.20
2014,01,21,00,49,0.20
2014,01,21,00,50,0.20
2014,01,21,00,51,0.20
2014,01,21,00,52,0.20
2014,01,21,00,53,0.20
2014,01,21,00,54,0.20
2014,01,21,00,55,0.20
2014,01,21,00,56,0.30
2014,01,21,00,57,0.30
2014,01,21,00,58,0.30
2014,01,21,00,59,0.30
2014,01,21,01,00,0.30
2014,01,21,01,01,0.30
2014,01,21,01,02,0.20
2014,01,21,01,03,0.20
2014,01,21,01,04,0.20
2014,01,21,01,05,0.20
2014,01,21,01,06,0.20
2014,01,21,01,07,0.20
2014,01,21,01,08,0.20
2014,01,21,01,09,0.20
2014,01,21,01,10,0.20
2014,01,21,01,11,0.10
2014,01,21,01,12,0.10
2014,01,21,01,13,0.10
2014,01,21,01,14,0.10
2014,01,21,01,15,0.10
2014,01,21,01,16,0.10
2014,01,21,01,17,0.10
2014,01,21,01,18,0.10
2014,01,21,01,19,0.20
2014,01,21,01,20,0.20
2014,01,21,01,21,0.20
2014,01,21,01,22,0.20
2014,01,21,01,23,0.20
2014,01,21,01,24,0.20
2014,01,21,01,25,0.20
2014,01,21,01,26,0.10
2014,01,21,01,27,0.10
2014,01,21,01,28,0.10
2014,01,21,01,29,0.10
2014,01,21,01,30,0.10
2014,01,21,01,31,0.00
2014,01,21,01,32,0.00
2014,01,21,01,33,0.00
2014,01,21,01,34,0.00
2014,01,21,01,35,-0.10
2014,01,21,01,36,-0.10
2014,01,21,01,37,-0.10
2014,01,21,01,38,-0.10
2014,01,21,01,39,-0.10
2014,01,21,01,40,-0.10
2014,01,21,01,41,-0.20
2014,01,21,01,42,-0.20
2014,01,21,01,43,-0.20
2014,01,21,01,44,-0.20
2014,01,21,01,45,-0.20
2014,01,21,01,46,-0.30
2014,01,21,01,47,-0.30
2014,01,21,01,48,-0.30
2014,01,21,01,49,-0.30
2014,01,21,01,50,-0.20
2014,01,21,01,51,-0.30
2014,01,21,01,52,-0.20
2014,01,21,01,53,-0.20
2014,01,21,01,54,-0.20
2014,01,21,01,55,-0.30
2014,01,21,01,56,-0.30
2014,01,21,01,57,-0.30
2014,01,21,01,58,-0.30
2014,01,21,01,59,-0.30
2014,01,21,02,00,-0.30
2014,01,21,02,01,-0.30
2014,01,21,02,02,-0.30
2014,01,21,02,03,-0.30
2014,01,21,02,04,-0.30
2014,01,21,02,05,-0.30
2014,01,21,02,06,-0.30
2014,01,21,02,07,-0.30
2014,01,21,02,08,-0.30
2014,01,21,02,09,-0.30
2014,01,21,02,10,-0.30
2014,01,21,02,11,-0.30
2014,01,21,02,12,-0.30
2014,01,21,02,13,-0.30
2014,01,21,02,14,-0.30
2014,01,21,02,15,-0.30
2014,01,21,02,16,-0.30
2014,01,21,02,17,-0.30
2014,01,21,02,18,-0.30
2014,01,21,02,19,-0.30
2014,01,21,02,20,-0.30
2014,01,21,02,21,-0.30
2014,01,21,02,22,-0.30
2014,01,21,02,23,-0.30
2014,01,21,02,24,-0.30
2014,01,21,02,25,-0.30
2014,01,21,02,26,-0.30
2014,01,21,02,27,-0.30
2014,01,21,02,28,-0.30
2014,01,21,02,29,-0.30
2014,01,21,02,30,-0.30
2014,01,21,02,31,-0.40
2014,01,21,02,32,-0.40
2014,01,21,02,33,-0.40
2014,01,21,02,34,-0.40
2014,01,21,02,35,-0.40
2014,01,21,02,36,-0.40
2014,01,21,02,37,-0.40
2014,01,21,02,38,-0.40
2014,01,21,02,39,-0.40
2014,01,21,02,40,-0.40
2014,01,21,02,41,-0.30
2014,01,21,02,42,-0.30
2014,01,21,02,43,-0.30
2014,01,21,02,44,-0.30
2014,01,21,02,45,-0.30
2014,01,21,02,46,-0.30
2014,01,21,02,47,-0.30
2014,01,21,02,48,-0.30
2014,01,21,02,49,-0.30
2014,01,21,02,50,-0.30
2014,01,21,02,51,-0.30
2014,01,21,02,52,-0.30
2014,01,21,02,53,-0.30
2014,01,21,02,54,-0.30
2014,01,21,02,55,-0.30
2014,01,21,02,56,-0.30
2014,01,21,02,57,-0.30
2014,01,21,02,58,-0.30
2014,01,21,02,59,-0.30
2014,01,21,03,00,-0.30
2014,01,21,03,01,-0.30
2014,01,21,03,02,-0.30
2014,01,21,03,03,-0.30
2014,01,21,03,04,-0.30
2014,01,21,03,05,-0.30
2014,01,21,03,06,-0.30
2014,01,21,03,07,-0.30
2014,01,21,03,08,-0.20
2014,01,21,03,09,-0.20
2014,01,21,03,10,-0.20
2014,01,21,03,11,-0.20
2014,01,21,03,12,-0.20
2014,01,21,03,13,-0.20
2014,01,21,03,14,-0.20
2014,01,21,03,15,-0.20
2014,01,21,03,16,-0.30
2014,01,21,03,17,-0.30
2014,01,21,03,18,-0.30
2014,01,21,03,19,-0.30
2014,01,21,03,20,-0.30
2014,01,21,03,21,-0.30
2014,01,21,03,22,-0.30
2014,01,21,03,23,-0.40
2014,01,21,03,24,-0.40
2014,01,21,03,25,-0.40
2014,01,21,03,26,-0.40
2014,01,21,03,27,-0.40
2014,01,21,03,28,-0.40
2014,01,21,03,29,-0.40
2014,01,21,03,30,-0.40
2014,01,21,03,31,-0.40
2014,01,21,03,32,-0.40
2014,01,21,03,33,-0.40
2014,01,21,03,34,-0.40
2014,01,21,03,35,-0.40
2014,01,21,03,36,-0.40
2014,01,21,03,37,-0.40
2014,01,21,03,38,-0.40
2014,01,21,03,39,-0.40
2014,01,21,03,40,-0.40
2014,01,21,03,41,-0.40
2014,01,21,03,42,-0.30
2014,01,21,03,43,-0.30
2014,01,21,03,44,-0.30
2014,01,21,03,45,-0.30
2014,01,21,03,46,-0.30
2014,01,21,03,47,-0.20
2014,01,21,03,48,-0.20
2014,01,21,03,49,-0.20
2014,01,21,03,50,-0.20
2014,01,21,03,51,-0.20
2014,01,21,03,52,-0.10
2014,01,21,03,53,-0.10
2014,01,21,03,54,-0.10
2014,01,21,03,55,-0.10
2014,01,21,03,56,-0.10
2014,01,21,03,57,-0.10
2014,01,21,03,58,-0.20
2014,01,21,03,59,-0.20
2014,01,21,04,00,-0.20
2014,01,21,04,01,-0.20
2014,01,21,04,02,-0.20
2014,01,21,04,03,-0.30
2014,01,21,04,04,-0.30
2014,01,21,04,05,-0.30
2014,01,21,04,06,-0.30
2014,01,21,04,07,-0.30
2014,01,21,04,08,-0.30
2014,01,21,04,09,-0.30
2014,01,21,04,10,-0.30
2014,01,21,04,11,-0.30
2014,01,21,04,12,-0.30
2014,01,21,04,13,-0.30
2014,01,21,04,14,-0.30
2014,01,21,04,15,-0.30
2014,01,21,04,16,-0.20
2014,01,21,04,17,-0.20
2014,01,21,04,18,-0.20
2014,01,21,04,19,-0.20
2014,01,21,04,20,-0.20
2014,01,21,04,21,-0.20
2014,01,21,04,22,-0.20
2014,01,21,04,23,-0.20
2014,01,21,04,24,-0.20
2014,01,21,04,25,-0.20
2014,01,21,04,26,-0.30
2014,01,21,04,27,-0.30
2014,01,21,04,28,-0.30
2014,01,21,04,29,-0.30
2014,01,21,04,30,-0.30
2014,01,21,04,31,-0.30
2014,01,21,04,32,-0.30
2014,01,21,04,33,-0.30
2014,01,21,04,34,-0.30
2014,01,21,04,35,-0.30
2014,01,21,04,36,-0.30
2014,01,21,04,37,-0.40
2014,01,21,04,38,-0.40
2014,01,21,04,39,-0.40
2014,01,21,04,40,-0.40
2014,01,21,04,41,-0.40
2014,01,21,04,42,-0.40
2014,01,21,04,43,-0.40
2014,01,21,04,44,-0.40
2014,01,21,04,45,-0.40
2014,01,21,04,46,-0.40
2014,01,21,04,47,-0.40
2014,01,21,04,48,-0.40
2014,01,21,04,49,-0.40
2014,01,21,04,50,-0.40
2014,01,21,04,51,-0.40
2014,01,21,04,52,-0.40
2014,01,21,04,53,-0.40
2014,01,21,04,54,-0.40
2014,01,21,04,55,-0.40
2014,01,21,04,56,-0.40
2014,01,21,04,57,-0.40
2014,01,21,04,58,-0.40
2014,01,21,04,59,-0.40
2014,01,21,05,00,-0.40
2014,01,21,05,01,-0.40
2014,01,21,05,02,-0.40
2014,01,21,05,03,-0.40
2014,01,21,05,04,-0.40
2014,01,21,05,05,-0.40
2014,01,21,05,06,-0.40
2014,01,21,05,07,-0.40
2014,01,21,05,08,-0.40
2014,01,21,05,09,-0.40
2014,01,21,05,10,-0.40
2014,01,21,05,11,-0.40
2014,01,21,05,12,-0.40
2014,01,21,05,13,-0.40
2014,01,21,05,14,-0.40
2014,01,21,05,15,-0.40
2014,01,21,05,16,-0.40
2014,01,21,05,17,-0.40
2014,01,21,05,18,-0.40
2014,01,21,05,19,-0.40
2014,01,21,05,20,-0.40
2014,01,21,05,21,-0.40
2014,01,21,05,22,-0.40
2014,01,21,05,23,-0.40
2014,01,21,05,24,-0.40
2014,01,21,05,25,-0.40
2014,01,21,05,26,-0.40
2014,01,21,05,27,-0.40
2014,01,21,05,28,-0.40
2014,01,21,05,29,-0.40
2014,01,21,05,30,-0.40
2014,01,21,05,31,-0.40
2014,01,21,05,32,-0.40
2014,01,21,05,33,-0.40
2014,01,21,05,34,-0.40
2014,01,21,05,35,-0.40
2014,01,21,05,36,-0.40
2014,01,21,05,37,-0.40
2014,01,21,05,38,-0.40
2014,01,21,05,39,-0.40
2014,01,21,05,40,-0.40
2014,01,21,05,41,-0.40
2014,01,21,05,42,-0.50
2014,01,21,05,43,-0.50
2014,01,21,05,44,-0.50
2014,01,21,05,45,-0.50
2014,01,21,05,46,-0.50
2014,01,21,05,47,-0.50
2014,01,21,05,48,-0.50
2014,01,21,05,49,-0.50
2014,01,21,05,50,-0.50
2014,01,21,05,51,-0.50
2014,01,21,05,52,-0.50
2014,01,21,05,53,-0.50
2014,01,21,05,54,-0.50
2014,01,21,05,55,-0.50
2014,01,21,05,56,-0.50
2014,01,21,05,57,-0.50
2014,01,21,05,58,-0.50
2014,01,21,05,59,-0.50
2014,01,21,06,00,-0.50
2014,01,21,06,01,-0.50
2014,01,21,06,02,-0.50
2014,01,21,06,03,-0.50
2014,01,21,06,04,-0.50
2014,01,21,06,05,-0.50
2014,01,21,06,06,-0.50
2014,01,21,06,07,-0.50
2014,01,21,06,08,-0.50
2014,01,21,06,09,-0.50
2014,01,21,06,10,-0.50
2014,01,21,06,11,-0.50
2014,01,21,06,12,-0.50
2014,01,21,06,13,-0.50
2014,01,21,06,14,-0.50
2014,01,21,06,15,-0.50
2014,01,21,06,16,-0.50
2014,01,21,06,17,-0.40
2014,01,21,06,18,-0.40
2014,01,21,06,19,-0.40
2014,01,21,06,20,-0.40
2014,01,21,06,21,-0.40
2014,01,21,06,22,-0.40
2014,01,21,06,23,-0.40
2014,01,21,06,24,-0.50
2014,01,21,06,25,-0.60
2014,01,21,06,26,-0.60
2014,01,21,06,27,-0.60
2014,01,21,06,28,-0.60
2014,01,21,06,29,-0.60
2014,01,21,06,30,-0.60
2014,01,21,06,31,-0.60
2014,01,21,06,32,-0.60
2014,01,21,06,33,-0.60
2014,01,21,06,34,-0.60
2014,01,21,06,35,-0.60
2014,01,21,09,58,1.10
2014,01,21,09,59,1.10
2014,01,21,10,00,1.10
2014,01,21,10,01,1.20
2014,01,21,10,02,1.20
2014,01,21,10,03,1.20
2014,01,21,10,04,1.20
2014,01,21,10,05,1.30
2014,01,21,10,06,1.30
2014,01,21,10,07,1.30
2014,01,21,10,08,1.30
2014,01,21,10,09,1.30
2014,01,21,10,10,1.30
2014,01,21,10,11,1.30
2014,01,21,10,12,1.30
2014,01,21,10,13,1.30
2014,01,21,10,14,1.30
2014,01,21,10,15,1.40
2014,01,21,10,16,1.40
2014,01,21,10,17,1.40
2014,01,21,10,18,1.50
2014,01,21,10,19,1.50
2014,01,21,10,20,1.50
2014,01,21,10,21,1.50
2014,01,21,10,22,1.60
2014,01,21,10,23,1.60
2014,01,21,10,24,1.60
2014,01,21,10,25,1.60
2014,01,21,10,26,1.70
2014,01,21,10,27,1.70
2014,01,21,10,28,1.70
2014,01,21,10,29,1.70
2014,01,21,10,30,1.70
2014,01,21,10,31,1.70
2014,01,21,10,32,1.70
2014,01,21,10,33,1.80
2014,01,21,10,34,1.80
2014,01,21,10,35,1.80
2014,01,21,10,36,1.80
2014,01,21,10,37,1.90
2014,01,21,10,38,1.90
2014,01,21,10,39,1.90
2014,01,21,10,40,1.90
2014,01,21,10,41,1.90
2014,01,21,10,42,2.00
2014,01,21,10,43,2.00
2014,01,21,10,44,2.00
2014,01,21,10,45,2.00
2014,01,21,10,46,2.00
2014,01,21,10,47,2.00
2014,01,21,10,48,2.00
2014,01,21,10,49,2.00
2014,01,21,10,50,2.00
2014,01,21,10,51,2.00
2014,01,21,10,52,2.00
2014,01,21,10,53,2.00
2014,01,21,10,54,2.10
2014,01,21,10,55,2.10
2014,01,21,10,56,2.10
2014,01,21,10,57,2.10
2014,01,21,10,58,2.10
2014,01,21,10,59,2.10
2014,01,21,11,00,2.10
2014,01,21,11,01,2.10
2014,01,21,11,02,2.10
2014,01,21,11,03,2.10
2014,01,21,11,04,2.20
2014,01,21,11,05,2.20
2014,01,21,11,06,2.20
2014,01,21,11,07,2.20
2014,01,21,11,08,2.20
2014,01,21,11,09,2.20
2014,01,21,11,10,2.20
2014,01,21,11,11,2.30
2014,01,21,11,12,2.30
2014,01,21,11,13,2.30
2014,01,21,11,14,2.40
2014,01,21,11,15,2.40
2014,01,21,11,16,2.40
2014,01,21,11,17,2.50
2014,01,21,11,18,2.50
2014,01,21,11,19,2.60
2014,01,21,11,20,2.60
2014,01,21,11,21,2.70
2014,01,21,11,22,2.70
2014,01,21,11,23,2.70
2014,01,21,11,24,2.70
2014,01,21,11,25,2.80
2014,01,21,11,26,2.80
2014,01,21,11,27,2.80
2014,01,21,11,28,2.80
2014,01,21,11,29,2.90
2014,01,21,11,30,2.90
2014,01,21,11,31,2.90
2014,01,21,11,32,2.90
2014,01,21,11,33,3.00
2014,01,21,11,34,3.00
2014,01,21,11,35,3.10
2014,01,21,11,36,3.10
2014,01,21,11,37,3.10
2014,01,21,11,38,3.10
2014,01,21,11,39,3.20
2014,01,21,11,40,3.20
2014,01,21,11,41,3.20
2014,01,21,11,42,3.30
2014,01,21,11,43,3.30
2014,01,21,11,44,3.30
2014,01,21,11,45,3.30
2014,01,21,11,46,3.30
2014,01,21,11,47,3.30
2014,01,21,11,48,3.40
2014,01,21,11,49,3.40
2014,01,21,11,50,3.40
2014,01,21,11,51,3.50
2014,01,21,11,52,3.50
2014,01,21,11,53,3.50
2014,01,21,11,54,3.60
2014,01,21,11,55,3.60
2014,01,21,11,56,3.60
2014,01,21,11,57,3.70
2014,01,21,11,58,3.80
2014,01,21,11,59,3.80
2014,01,21,12,00,3.80
2014,01,21,12,01,3.90
2014,01,21,12,02,3.90
2014,01,21,12,03,3.90
2014,01,21,12,04,3.90
2014,01,21,12,05,4.00
2014,01,21,12,06,4.00
2014,01,21,12,07,4.00
2014,01,21,12,08,4.10
2014,01,21,12,09,4.10
2014,01,21,12,10,4.10
2014,01,21,12,11,4.10
2014,01,21,12,12,4.10
2014,01,21,12,13,4.20
2014,01,21,12,14,4.20
2014,01,21,12,15,4.20
2014,01,21,12,16,4.20
2014,01,21,12,17,4.20
2014,01,21,12,18,4.20
2014,01,21,12,19,4.20
2014,01,21,12,20,4.20
2014,01,21,12,21,4.30
2014,01,21,12,22,4.30
2014,01,21,12,23,4.30
2014,01,21,12,24,4.40
2014,01,21,12,25,4.40
2014,01,21,12,26,4.40
2014,01,21,12,27,4.40
2014,01,21,12,28,4.40
2014,01,21,12,29,4.40
2014,01,21,12,30,4.50
2014,01,21,12,31,4.50
2014,01,21,12,32,4.50
2014,01,21,12,33,4.60
2014,01,21,12,34,4.60
2014,01,21,12,35,4.70
2014,01,21,12,36,4.80
2014,01,21,12,37,4.90
2014,01,21,12,38,4.90
2014,01,21,12,39,5.00
2014,01,21,12,40,5.00
2014,01,21,12,41,5.10
2014,01,21,12,42,5.10
2014,01,21,12,43,5.20
2014,01,21,12,44,5.20
2014,01,21,12,45,5.20
2014,01,21,12,46,5.30
2014,01,21,12,47,5.30
2014,01,21,12,48,5.30
2014,01,21,12,49,5.30
2014,01,21,12,50,5.40
2014,01,21,12,51,5.50
2014,01,21,12,52,5.50
2014,01,21,12,53,5.60
2014,01,21,12,54,5.60
2014,01,21,12,55,5.60
2014,01,21,12,56,5.70
2014,01,21,12,57,5.70
2014,01,21,12,58,5.80
2014,01,21,12,59,5.80
2014,01,21,13,00,5.80
2014,01,21,13,01,5.90
2014,01,21,13,02,6.00
2014,01,21,13,03,6.10
2014,01,21,13,04,6.10
2014,01,21,13,05,6.20
2014,01,21,13,06,6.30
2014,01,21,13,07,6.30
2014,01,21,13,08,6.30
2014,01,21,13,09,6.30
2014,01,21,13,10,6.30
2014,01,21,13,11,6.40
2014,01,21,13,12,6.40
2014,01,21,13,13,6.40
2014,01,21,13,14,6.40
2014,01,21,13,15,6.50
2014,01,21,13,16,6.50
2014,01,21,13,17,6.50
2014,01,21,13,18,6.60
2014,01,21,13,19,6.60
2014,01,21,13,20,6.70
2014,01,21,13,21,6.70
2014,01,21,13,22,6.70
2014,01,21,13,23,6.70
2014,01,21,13,24,6.70
2014,01,21,13,25,6.80
2014,01,21,13,26,6.80
2014,01,21,13,27,6.80
2014,01,21,13,28,6.80
2014,01,21,13,29,6.80
2014,01,21,13,30,6.90
2014,01,21,13,31,6.90
2014,01,21,13,32,6.90
2014,01,21,13,33,6.90
2014,01,21,13,34,6.90
2014,01,21,13,35,6.90
2014,01,21,13,36,6.90
2014,01,21,13,37,6.90
2014,01,21,13,38,6.90
2014,01,21,13,39,6.90
2014,01,21,13,40,6.90
2014,01,21,13,41,6.90
2014,01,21,13,42,6.90
2014,01,21,13,43,6.90
2014,01,21,13,44,6.90
2014,01,21,13,45,6.90
2014,01,21,13,46,6.90
2014,01,21,13,47,6.90
2014,01,21,13,48,6.90
2014,01,21,13,49,7.00
2014,01,21,13,50,7.00
2014,01,21,13,51,7.00
2014,01,21,13,52,7.00
2014,01,21,13,53,7.10
2014,01,21,13,54,7.10
2014,01,21,13,55,7.10
2014,01,21,13,56,7.10
2014,01,21,13,57,7.10
2014,01,21,13,58,7.10
2014,01,21,13,59,7.10
2014,01,21,14,00,7.20
2014,01,21,14,01,7.20
2014,01,21,14,02,7.20
2014,01,21,14,03,7.20
2014,01,21,14,04,7.20
2014,01,21,14,05,7.20
2014,01,21,14,06,7.20
2014,01,21,14,07,7.20
2014,01,21,14,08,7.20
2014,01,21,14,09,7.20
2014,01,21,14,10,7.20
2014,01,21,14,11,7.30
2014,01,21,14,12,7.20
2014,01,21,14,13,7.20
2014,01,21,14,14,7.20
2014,01,21,14,15,7.20
2014,01,21,14,16,7.20
2014,01,21,14,17,7.20
2014,01,21,14,18,7.20
2014,01,21,14,19,7.30
2014,01,21,14,20,7.30
2014,01,21,14,21,7.30
2014,01,21,14,22,7.30
2014,01,21,14,23,7.30
2014,01,21,14,24,7.30
2014,01,21,14,25,7.30
2014,01,21,14,26,7.30
2014,01,21,14,27,7.30
2014,01,21,14,28,7.30
2014,01,21,14,29,7.40
2014,01,21,14,30,7.40
2014,01,21,14,31,7.40
2014,01,21,14,32,7.40
2014,01,21,14,33,7.40
2014,01,21,14,34,7.40
2014,01,21,14,35,7.40
2014,01,21,14,36,7.50
2014,01,21,14,37,7.50
2014,01,21,14,38,7.50
2014,01,21,14,39,7.50
2014,01,21,14,40,7.40
2014,01,21,14,41,7.40
2014,01,21,14,42,7.40
2014,01,21,14,43,7.40
2014,01,21,14,44,7.40
2014,01,21,14,45,7.40
2014,01,21,14,46,7.40
2014,01,21,14,47,7.40
2014,01,21,14,48,7.40
2014,01,21,14,49,7.40
2014,01,21,14,50,7.40
2014,01,21,14,51,7.40
2014,01,21,14,52,7.40
2014,01,21,14,53,7.40
2014,01,21,14,54,7.40
2014,01,21,14,55,7.40
2014,01,21,14,56,7.40
2014,01,21,14,57,7.40
2014,01,21,14,58,7.40
2014,01,21,14,59,7.40
2014,01,21,15,00,7.40
2014,01,21,15,01,7.40
2014,01,21,15,02,7.40
2014,01,21,15,03,7.40
2014,01,21,15,04,7.30
2014,01,21,15,05,7.30
2014,01,21,15,06,7.30
2014,01,21,15,07,7.20
2014,01,21,15,08,7.20
2014,01,21,15,09,7.20
2014,01,21,15,10,7.20
2014,01,21,15,11,7.10
2014,01,21,15,12,7.10
2014,01,21,15,13,7.10
2014,01,21,15,14,7.00
2014,01,21,15,15,7.00
2014,01,21,15,16,6.90
2014,01,21,15,17,6.90
2014,01,21,15,18,6.90
2014,01,21,15,19,6.90
2014,01,21,15,20,6.90
2014,01,21,15,21,6.90
2014,01,21,15,22,6.90
2014,01,21,15,23,6.90
2014,01,21,15,24,6.80
2014,01,21,15,25,6.80
2014,01,21,15,26,6.80
2014,01,21,15,27,6.80
2014,01,21,15,28,6.80
2014,01,21,15,29,6.80
2014,01,21,15,30,6.80
2014,01,21,15,31,6.80
2014,01,21,15,32,6.80
2014,01,21,15,33,6.80
2014,01,21,15,34,6.80
2014,01,21,15,35,6.80
2014,01,21,15,36,6.80
2014,01,21,15,37,6.90
2014,01,21,15,38,6.90
2014,01,21,15,39,6.90
2014,01,21,15,40,7.00
2014,01,21,15,41,7.00
2014,01,21,15,42,7.10
2014,01,21,15,43,7.10
2014,01,21,15,44,7.10
2014,01,21,15,45,7.10
2014,01,21,15,46,7.10
2014,01,21,15,47,7.10
2014,01,21,15,48,7.10
2014,01,21,15,49,7.10
2014,01,21,15,50,7.10
2014,01,21,15,51,7.10
2014,01,21,15,52,7.10
2014,01,21,15,53,7.10
2014,01,21,15,54,7.10
2014,01,21,15,55,7.10
2014,01,21,15,56,7.10
2014,01,21,15,57,7.10
2014,01,21,15,58,7.10
2014,01,21,15,59,7.10
2014,01,21,16,00,7.10
2014,01,21,16,01,7.20
2014,01,21,16,02,7.10
2014,01,21,16,03,7.10
2014,01,21,16,04,7.10
2014,01,21,16,05,7.10
2014,01,21,16,06,7.10
2014,01,21,16,07,7.10
2014,01,21,16,08,7.10
2014,01,21,16,09,7.10
2014,01,21,16,10,7.10
2014,01,21,16,11,7.10
2014,01,21,16,12,7.10
2014,01,21,16,13,7.10
2014,01,21,16,14,7.10
2014,01,21,16,15,7.10
2014,01,21,16,16,7.20
2014,01,21,16,17,7.20
2014,01,21,16,18,7.20
2014,01,21,16,19,7.20
2014,01,21,16,20,7.20
2014,01,21,16,21,7.20
2014,01,21,16,22,7.20
2014,01,21,16,23,7.20
2014,01,21,16,24,7.20
2014,01,21,16,25,7.10
2014,01,21,16,26,7.10
2014,01,21,16,27,7.10
2014,01,21,16,28,7.10
2014,01,21,16,29,7.10
2014,01,21,16,30,7.10
2014,01,21,16,31,7.10
2014,01,21,16,32,7.10
2014,01,21,16,33,7.10
2014,01,21,16,34,7.10
2014,01,21,16,35,7.10
2014,01,21,16,36,7.10
2014,01,21,16,37,7.00
2014,01,21,16,38,7.00
2014,01,21,16,39,7.00
2014,01,21,16,40,7.00
2014,01,21,16,41,7.00
2014,01,21,16,42,7.00
2014,01,21,16,43,7.00
2014,01,21,16,44,7.00
2014,01,21,16,45,6.90
2014,01,21,16,46,6.90
2014,01,21,16,47,6.90
2014,01,21,16,48,6.80
2014,01,21,16,49,6.80
2014,01,21,16,50,6.80
2014,01,21,16,51,6.80
2014,01,21,16,52,6.70
2014,01,21,16,53,6.70
2014,01,21,16,54,6.70
2014,01,21,16,55,6.70
2014,01,21,16,56,6.70
2014,01,21,16,57,6.70
2014,01,21,16,58,6.70
2014,01,21,16,59,6.60
2014,01,21,17,00,6.60
2014,01,21,17,01,6.60
2014,01,21,17,02,6.50
2014,01,21,17,03,6.50
2014,01,21,17,04,6.50
2014,01,21,17,05,6.50
2014,01,21,17,06,6.40
2014,01,21,17,07,6.40
2014,01,21,17,08,6.40
2014,01,21,17,09,6.40
2014,01,21,17,10,6.40
2014,01,21,17,11,6.50
2014,01,21,17,12,6.50
2014,01,21,17,13,6.50
2014,01,21,17,14,6.50
2014,01,21,17,15,6.50
2014,01,21,17,16,6.50
2014,01,21,17,17,6.50
2014,01,21,17,18,6.50
2014,01,21,17,19,6.50
2014,01,21,17,20,6.50
2014,01,21,17,21,6.50
2014,01,21,17,22,6.60
2014,01,21,17,23,6.50
2014,01,21,17,24,6.50
2014,01,21,17,25,6.50
2014,01,21,17,26,6.50
2014,01,21,17,27,6.50
2014,01,21,17,28,6.50
2014,01,21,17,29,6.50
2014,01,21,17,30,6.50
2014,01,21,17,31,6.50
2014,01,21,17,32,6.40
2014,01,21,17,33,6.40
2014,01,21,17,34,6.40
2014,01,21,17,35,6.40
2014,01,21,17,36,6.40
2014,01,21,17,37,6.40
2014,01,21,17,38,6.50
2014,01,21,17,39,6.50
2014,01,21,17,40,6.60
2014,01,21,17,41,6.60
2014,01,21,17,42,6.60
2014,01,21,17,43,6.60
2014,01,21,17,44,6.50
2014,01,21,17,45,6.50
2014,01,21,17,46,6.40
2014,01,21,17,47,6.40
2014,01,21,17,48,6.30
2014,01,21,17,49,6.30
2014,01,21,17,50,6.40
2014,01,21,17,51,6.40
2014,01,21,17,52,6.50
2014,01,21,17,53,6.60
2014,01,21,17,54,6.70
2014,01,21,17,55,6.80
2014,01,21,17,56,6.80
2014,01,21,17,57,6.80
2014,01,21,17,58,6.80
2014,01,21,17,59,6.90
2014,01,21,18,00,7.00
2014,01,21,18,01,7.00
2014,01,21,18,02,7.10
2014,01,21,18,03,7.20
2014,01,21,18,04,7.20
2014,01,21,18,05,7.20
2014,01,21,18,06,7.20
2014,01,21,18,07,7.20
2014,01,21,18,08,7.20
2014,01,21,18,09,7.20
2014,01,21,18,10,7.20
2014,01,21,18,11,7.20
2014,01,21,18,12,7.20
2014,01,21,18,13,7.20
2014,01,21,18,14,7.20
2014,01,21,18,15,7.20
2014,01,21,18,16,7.20
2014,01,21,18,17,7.20
2014,01,21,18,18,7.20
2014,01,21,18,19,7.20
2014,01,21,18,20,7.10
2014,01,21,18,21,7.10
2014,01,21,18,22,7.10
2014,01,21,18,23,7.00
2014,01,21,18,24,7.00
2014,01,21,18,25,6.90
2014,01,21,18,26,6.90
2014,01,21,18,27,6.90
2014,01,21,18,28,6.80
2014,01,21,18,29,6.80
2014,01,21,18,30,6.80
2014,01,21,18,31,6.80
2014,01,21,18,32,6.70
2014,01,21,18,33,6.70
2014,01,21,18,34,6.70
2014,01,21,18,35,6.70
2014,01,21,18,36,6.70
2014,01,21,18,37,6.60
2014,01,21,18,38,6.70
2014,01,21,18,39,6.60
2014,01,21,18,40,6.70
2014,01,21,18,41,6.70
2014,01,21,18,42,6.70
2014,01,21,18,43,6.70
2014,01,21,18,44,6.70
2014,01,21,18,45,6.80
2014,01,21,18,46,6.90
2014,01,21,18,47,6.90
2014,01,21,18,48,7.00
2014,01,21,18,49,7.00
2014,01,21,18,50,7.00
2014,01,21,18,51,7.00
2014,01,21,18,52,7.00
2014,01,21,18,53,6.90
2014,01,21,18,54,6.80
2014,01,21,18,55,6.80
2014,01,21,18,56,6.80
2014,01,21,18,57,6.70
2014,01,21,18,58,6.70
2014,01,21,18,59,6.70
2014,01,21,19,00,6.70
2014,01,21,19,01,6.70
2014,01,21,19,02,6.70
2014,01,21,19,03,6.70
2014,01,21,19,04,6.70
2014,01,21,19,05,6.70
2014,01,21,19,06,6.70
2014,01,21,19,07,6.70
2014,01,21,19,08,6.60
2014,01,21,19,09,6.60
2014,01,21,19,10,6.60
2014,01,21,19,11,6.60
2014,01,21,19,12,6.50
2014,01,21,19,13,6.50
2014,01,21,19,14,6.40
2014,01,21,19,15,6.40
2014,01,21,19,16,6.40
2014,01,21,19,17,6.40
2014,01,21,19,18,6.30
2014,01,21,19,19,6.30
2014,01,21,19,20,6.30
2014,01,21,19,21,6.40
2014,01,21,19,22,6.40
2014,01,21,19,23,6.40
2014,01,21,19,24,6.40
2014,01,21,19,25,6.40
2014,01,21,19,26,6.50
2014,01,21,19,27,6.50
2014,01,21,19,28,6.60
2014,01,21,19,29,6.60
2014,01,21,19,30,6.60
2014,01,21,19,31,6.70
2014,01,21,19,32,6.70
2014,01,21,19,33,6.70
2014,01,21,19,34,6.70
2014,01,21,19,35,6.70
2014,01,21,19,36,6.70
2014,01,21,19,37,6.70
2014,01,21,19,38,6.70
2014,01,21,19,39,6.70
2014,01,21,19,40,6.70
2014,01,21,19,41,6.70
2014,01,21,19,42,6.70
2014,01,21,19,43,6.70
2014,01,21,19,44,6.70
2014,01,21,19,45,6.70
2014,01,21,19,46,6.70
2014,01,21,19,47,6.70
2014,01,21,19,48,6.70
2014,01,21,19,49,6.60
2014,01,21,19,50,6.60
2014,01,21,19,51,6.60
2014,01,21,19,52,6.60
2014,01,21,19,53,6.60
2014,01,21,19,54,6.50
2014,01,21,19,55,6.40
2014,01,21,19,56,6.40
2014,01,21,19,57,6.40
2014,01,21,19,58,6.40
2014,01,21,19,59,6.40
2014,01,21,20,00,6.30
2014,01,21,20,01,6.30
2014,01,21,20,02,6.30
2014,01,21,20,03,6.30
2014,01,21,20,04,6.20
2014,01,21,20,05,6.20
2014,01,21,20,06,6.10
2014,01,21,20,07,6.10
2014,01,21,20,08,6.10
2014,01,21,20,09,6.20
2014,01,21,20,10,6.20
2014,01,21,20,11,6.20
2014,01,21,20,12,6.20
2014,01,21,20,13,6.20
2014,01,21,20,14,6.10
2014,01,21,20,15,6.10
2014,01,21,20,16,6.10
2014,01,21,20,17,6.10
2014,01,21,20,18,6.00
2014,01,21,20,19,6.00
2014,01,21,20,20,6.00
2014,01,21,20,21,5.90
2014,01,21,20,22,5.90
2014,01,21,20,23,5.90
2014,01,21,20,24,5.90
2014,01,21,20,25,5.90
2014,01,21,20,26,5.90
2014,01,21,20,27,5.80
2014,01,21,20,28,5.80
2014,01,21,20,29,5.80
2014,01,21,20,30,5.80
2014,01,21,20,31,5.70
2014,01,21,20,32,5.70
2014,01,21,20,33,5.60
2014,01,21,20,34,5.60
2014,01,21,20,35,5.60
2014,01,21,20,36,5.50
2014,01,21,20,37,5.50
2014,01,21,20,38,5.50
2014,01,21,20,39,5.50
2014,01,21,20,40,5.50
2014,01,21,20,41,5.50
2014,01,21,20,42,5.50
2014,01,21,20,43,5.50
2014,01,21,20,44,5.50
2014,01,21,20,45,5.40
2014,01,21,20,46,5.50
2014,01,21,20,47,5.50
2014,01,21,20,48,5.40
2014,01,21,20,49,5.40
2014,01,21,20,50,5.40
2014,01,21,20,51,5.40
2014,01,21,20,52,5.40
2014,01,21,20,53,5.40
2014,01,21,20,54,5.50
2014,01,21,20,55,5.50
2014,01,21,20,56,5.50
2014,01,21,20,57,5.50
2014,01,21,20,58,5.50
2014,01,21,20,59,5.50
2014,01,21,21,00,5.50
2014,01,21,21,01,5.50
2014,01,21,21,02,5.50
2014,01,21,21,03,5.60
2014,01,21,21,04,5.70
2014,01,21,21,05,5.80
2014,01,21,21,06,5.80
2014,01,21,21,07,5.90
2014,01,21,21,08,5.90
2014,01,21,21,09,5.90
2014,01,21,21,10,5.90
2014,01,21,21,11,5.90
2014,01,21,21,12,6.00
2014,01,21,21,13,6.00
2014,01,21,21,14,6.10
2014,01,21,21,15,6.10